• In France
  • List of Countries
  • For 7 days
  • Water Temperature
  • Satellite Maps
  • Weather Map
  • Weather Widgets
  • user-avatar
    Login

    Hourly Weather Abidzhan

    Today, 18 February, Sunday

    Time Temperature Precipitation Wind Pressure Humidity
    00:00 +29°C° 0 mm 5 mps 754 mmHg 82%
    01:00 +29°C° 0 mm 5 mps 753 mmHg 83%
    02:00 +28°C° 0 mm 5 mps 753 mmHg 84%
    03:00 +28°C° 0 mm 5 mps 753 mmHg 84%
    04:00 +28°C° 0 mm 5 mps 753 mmHg 84%
    05:00 +29°C° 0 mm 4 mps 753 mmHg 84%
    06:00 +29°C° 0 mm 4 mps 753 mmHg 84%
    07:00 +29°C° 0.1 mm 4 mps 753 mmHg 82%
    08:00 +29°C° 0.1 mm 4 mps 754 mmHg 80%
    09:00 +30°C° 0.1 mm 4 mps 754 mmHg 78%
    10:00 +32°C° 0.3 mm 4 mps 754 mmHg 74%
    11:00 +33°C° 0.3 mm 4 mps 754 mmHg 70%
    12:00 +33°C° 0.3 mm 4 mps 754 mmHg 66%
    13:00 +34°C° 1.3 mm 4 mps 753 mmHg 66%
    14:00 +34°C° 1.3 mm 4 mps 753 mmHg 65%
    15:00 +34°C° 1.3 mm 4 mps 752 mmHg 65%
    16:00 +33°C° 2.2 mm 4 mps 752 mmHg 70%
    17:00 +30°C° 2.2 mm 4 mps 752 mmHg 75%
    18:00 +29°C° 2.2 mm 4 mps 752 mmHg 80%
    19:00 +28°C° 0.1 mm 4 mps 753 mmHg 82%
    20:00 +28°C° 0.1 mm 4 mps 753 mmHg 84%
    21:00 +28°C° 0.1 mm 4 mps 754 mmHg 86%
    22:00 +27°C° 0 mm 3 mps 754 mmHg 87%
    23:00 +27°C° 0 mm 3 mps 754 mmHg 88%

    Tomorrow, 19 February, Monday

    Time Temperature Precipitation Wind Pressure Humidity
    00:00 +27°C° 0 mm 3 mps 754 mmHg 89%
    01:00 +27°C° 0 mm 3 mps 753 mmHg 89%
    02:00 +27°C° 0 mm 3 mps 753 mmHg 90%
    03:00 +27°C° 0 mm 2 mps 753 mmHg 91%
    04:00 +27°C° 0 mm 2 mps 753 mmHg 91%
    05:00 +27°C° 0 mm 2 mps 753 mmHg 92%
    06:00 +27°C° 0 mm 2 mps 753 mmHg 92%
    07:00 +28°C° 0 mm 2 mps 753 mmHg 86%
    08:00 +29°C° 0 mm 2 mps 754 mmHg 79%
    09:00 +31°C° 0 mm 2 mps 754 mmHg 73%
    10:00 +33°C° 0 mm 3 mps 754 mmHg 65%
    11:00 +35°C° 0 mm 3 mps 754 mmHg 57%
    12:00 +37°C° 0 mm 3 mps 753 mmHg 49%
    13:00 +37°C° 0 mm 3 mps 753 mmHg 48%
    14:00 +37°C° 0 mm 4 mps 752 mmHg 47%
    15:00 +37°C° 0 mm 4 mps 751 mmHg 45%
    16:00 +36°C° 0 mm 4 mps 751 mmHg 51%
    17:00 +34°C° 0 mm 4 mps 751 mmHg 58%
    18:00 +33°C° 0 mm 3 mps 751 mmHg 64%
    19:00 +31°C° 0 mm 3 mps 752 mmHg 70%
    20:00 +30°C° 0 mm 3 mps 753 mmHg 76%
    21:00 +29°C° 0 mm 3 mps 753 mmHg 81%
    22:00 +28°C° 0 mm 3 mps 753 mmHg 83%
    23:00 +28°C° 0 mm 3 mps 753 mmHg 84%

    Day after tomorrow, 20 February, Tuesday

    Time Temperature Precipitation Wind Pressure Humidity
    00:00 +28°C° 0 mm 3 mps 753 mmHg 86%
    01:00 +28°C° 0.1 mm 3 mps 753 mmHg 88%
    02:00 +28°C° 0.1 mm 3 mps 752 mmHg 89%
    03:00 +27°C° 0.1 mm 3 mps 752 mmHg 91%
    04:00 +27°C° 0 mm 2 mps 752 mmHg 91%
    05:00 +27°C° 0 mm 2 mps 752 mmHg 92%
    06:00 +27°C° 0 mm 2 mps 753 mmHg 92%
    07:00 +28°C° 0 mm 2 mps 753 mmHg 86%
    08:00 +29°C° 0 mm 2 mps 754 mmHg 80%
    09:00 +30°C° 0 mm 2 mps 754 mmHg 74%
    10:00 +31°C° 0 mm 2 mps 754 mmHg 70%
    11:00 +33°C° 0 mm 3 mps 754 mmHg 65%
    12:00 +34°C° 0 mm 3 mps 754 mmHg 61%
    13:00 +34°C° 0 mm 3 mps 753 mmHg 59%
    14:00 +35°C° 0 mm 3 mps 752 mmHg 57%
    15:00 +35°C° 0 mm 3 mps 751 mmHg 55%
    16:00 +34°C° 0 mm 3 mps 751 mmHg 59%
    17:00 +33°C° 0 mm 3 mps 751 mmHg 63%
    18:00 +31°C° 0 mm 3 mps 751 mmHg 66%
    19:00 +30°C° 0 mm 3 mps 752 mmHg 71%
    20:00 +29°C° 0 mm 3 mps 753 mmHg 76%
    21:00 +29°C° 0 mm 3 mps 753 mmHg 80%
    22:00 +28°C° 0 mm 3 mps 753 mmHg 81%
    23:00 +28°C° 0 mm 3 mps 753 mmHg 82%

    21 February, Wednesday

    Time Temperature Precipitation Wind Pressure Humidity
    00:00 +28°C° 0 mm 3 mps 753 mmHg 82%
    01:00 +28°C° 0 mm 3 mps 753 mmHg 83%
    02:00 +28°C° 0 mm 3 mps 752 mmHg 83%
    03:00 +28°C° 0 mm 4 mps 752 mmHg 84%
    04:00 +27°C° 0 mm 3 mps 752 mmHg 85%
    05:00 +27°C° 0 mm 3 mps 753 mmHg 87%
    06:00 +27°C° 0 mm 2 mps 753 mmHg 88%
    07:00 +28°C° 0 mm 3 mps 753 mmHg 82%
    08:00 +30°C° 0 mm 3 mps 754 mmHg 75%
    09:00 +32°C° 0 mm 4 mps 754 mmHg 68%
    10:00 +34°C° 0 mm 4 mps 754 mmHg 63%
    11:00 +35°C° 0 mm 4 mps 753 mmHg 57%
    12:00 +36°C° 0 mm 4 mps 753 mmHg 52%
    13:00 +36°C° 0.2 mm 5 mps 752 mmHg 53%
    14:00 +36°C° 0.2 mm 5 mps 751 mmHg 54%
    15:00 +36°C° 0.2 mm 5 mps 751 mmHg 55%
    16:00 +34°C° 0 mm 5 mps 751 mmHg 59%
    17:00 +33°C° 0 mm 4 mps 751 mmHg 64%
    18:00 +32°C° 0 mm 4 mps 751 mmHg 69%
    19:00 +30°C° 0 mm 4 mps 752 mmHg 72%
    20:00 +30°C° 0 mm 4 mps 752 mmHg 76%
    21:00 +29°C° 0 mm 4 mps 753 mmHg 79%
    22:00 +29°C° 0.1 mm 4 mps 753 mmHg 81%
    23:00 +28°C° 0.1 mm 4 mps 753 mmHg 83%

    22 February, Thursday

    Time Temperature Precipitation Wind Pressure Humidity
    00:00 +28°C° 0.1 mm 3 mps 753 mmHg 85%
    01:00 +28°C° 0.5 mm 4 mps 752 mmHg 85%
    02:00 +28°C° 0.5 mm 4 mps 752 mmHg 85%
    03:00 +28°C° 0.5 mm 4 mps 751 mmHg 86%
    04:00 +28°C° 0 mm 4 mps 751 mmHg 86%
    05:00 +28°C° 0 mm 4 mps 752 mmHg 86%
    06:00 +28°C° 0 mm 4 mps 752 mmHg 86%
    07:00 +28°C° 0.1 mm 4 mps 753 mmHg 83%
    08:00 +29°C° 0.1 mm 4 mps 753 mmHg 80%
    09:00 +30°C° 0.1 mm 4 mps 753 mmHg 77%
    10:00 +30°C° 0.2 mm 4 mps 753 mmHg 75%
    11:00 +32°C° 0.2 mm 4 mps 753 mmHg 73%
    12:00 +32°C° 0.2 mm 4 mps 752 mmHg 70%
    13:00 +32°C° 0.1 mm 4 mps 751 mmHg 69%
    14:00 +33°C° 0.1 mm 4 mps 751 mmHg 67%
    15:00 +33°C° 0.1 mm 4 mps 750 mmHg 66%
    16:00 +32°C° 0.1 mm 4 mps 750 mmHg 68%
    17:00 +32°C° 0.1 mm 4 mps 751 mmHg 70%
    18:00 +30°C° 0.1 mm 4 mps 751 mmHg 72%
    19:00 +29°C° 0 mm 4 mps 751 mmHg 76%
    20:00 +29°C° 0 mm 3 mps 752 mmHg 80%
    21:00 +28°C° 0 mm 3 mps 752 mmHg 84%
    22:00 +28°C° 0 mm 3 mps 752 mmHg 85%
    23:00 +28°C° 0 mm 4 mps 752 mmHg 86%

    23 February, Friday

    Time Temperature Precipitation Wind Pressure Humidity
    00:00 +28°C° 0 mm 4 mps 752 mmHg 87%
    01:00 +28°C° 0.6 mm 4 mps 751 mmHg 88%
    02:00 +27°C° 0.6 mm 4 mps 751 mmHg 90%
    03:00 +27°C° 0.6 mm 3 mps 751 mmHg 92%
    04:00 +27°C° 3.1 mm 3 mps 751 mmHg 91%
    05:00 +27°C° 3.1 mm 3 mps 752 mmHg 91%
    06:00 +26°C° 3.1 mm 2 mps 752 mmHg 90%
    07:00 +27°C° 0.5 mm 2 mps 752 mmHg 86%
    08:00 +29°C° 0.5 mm 3 mps 753 mmHg 82%
    09:00 +30°C° 0.5 mm 3 mps 753 mmHg 77%
    10:00 +31°C° 0.6 mm 3 mps 753 mmHg 72%
    11:00 +33°C° 0.6 mm 3 mps 753 mmHg 66%
    12:00 +34°C° 0.6 mm 3 mps 752 mmHg 60%
    13:00 +34°C° 0.2 mm 3 mps 752 mmHg 59%
    14:00 +34°C° 0.2 mm 3 mps 751 mmHg 57%
    15:00 +35°C° 0.2 mm 4 mps 751 mmHg 56%
    16:00 +34°C° 0 mm 4 mps 751 mmHg 60%
    17:00 +33°C° 0 mm 3 mps 751 mmHg 64%
    18:00 +30°C° 0 mm 3 mps 752 mmHg 68%
    19:00 +30°C° 0 mm 3 mps 752 mmHg 72%
    20:00 +29°C° 0 mm 3 mps 752 mmHg 76%
    21:00 +28°C° 0 mm 3 mps 753 mmHg 81%
    22:00 +28°C° 0 mm 3 mps 753 mmHg 82%
    23:00 +28°C° 0 mm 3 mps 753 mmHg 83%
    Show more